This is the latest recevied weather packets stored in our database for station/object KC5TIL-3. If no packets are shown the sender has not sent any weather packets the latest 10 day(s).
| Time | Temp. | Humidity | Pressure | Rain* | Wind** | Luminosity | Snow |
|---|---|---|---|---|---|---|---|
| 1787554292 | 32.78° C | 14% | 1009.8 hPa | 0 mm | 5.36 m/s, 224° | - | - |
| 1787553994 | 33.33° C | 14% | 1009.8 hPa | 0 mm | 5.36 m/s, 223° | - | - |
| 1787553693 | 33.33° C | 14% | 1009.8 hPa | 0 mm | 4.47 m/s, 188° | - | - |
| 1787553395 | 33.33° C | 14% | 1009.8 hPa | 0 mm | 5.36 m/s, 232° | - | - |
| 1787553092 | 33.33° C | 14% | 1009.8 hPa | 0 mm | 4.92 m/s, 199° | - | - |
| 1787552790 | 33.33° C | 14% | 1009.8 hPa | 0 mm | 4.92 m/s, 219° | - | - |
| 1787552488 | 33.33° C | 14% | 1009.8 hPa | 0 mm | 3.58 m/s, 199° | - | - |
| 1787552189 | 33.33° C | 14% | 1010.8 hPa | 0 mm | 4.02 m/s, 221° | - | - |
| 1787551883 | 33.33° C | 14% | 1010.8 hPa | 0 mm | 3.58 m/s, 216° | - | - |
| 1787551585 | 33.33° C | 14% | 1010.8 hPa | 0 mm | 3.58 m/s, 149° | - | - |
| 1787551287 | 33.89° C | 14% | 1009.8 hPa | 0 mm | 4.47 m/s, 231° | - | - |
| 1787550985 | 33.89° C | 14% | 1009.8 hPa | 0 mm | 4.02 m/s, 214° | - | - |
| 1787550687 | 33.89° C | 14% | 1009.8 hPa | 0 mm | 3.13 m/s, 170° | - | - |
| 1787550389 | 33.89° C | 14% | 1009.8 hPa | 0 mm | 3.13 m/s, 213° | - | - |
| 1787550088 | 33.89° C | 14% | 1009.8 hPa | 0 mm | 3.13 m/s, 210° | - | - |
| 1787549789 | 33.89° C | 14% | 1009.8 hPa | 0 mm | 4.47 m/s, 213° | - | - |
| 1787549487 | 33.89° C | 14% | 1009.8 hPa | 0 mm | 3.13 m/s, 236° | - | - |
| 1787549185 | 33.89° C | 14% | 1009.8 hPa | 0 mm | 3.58 m/s, 195° | - | - |
| 1787548882 | 34.44° C | 14% | 1009.8 hPa | 0 mm | 3.13 m/s, 201° | - | - |
| 1787548584 | 33.89° C | 14% | 1009.8 hPa | 0 mm | 3.13 m/s, 188° | - | - |
| 1787548283 | 34.44° C | 14% | 1009.8 hPa | 0 mm | 3.58 m/s, 144° | - | - |
| 1787547980 | 34.44° C | 11% | 1009.8 hPa | 0 mm | 3.13 m/s, 216° | - | - |
| 1787547681 | 34.44° C | 11% | 1009.8 hPa | 0 mm | 3.58 m/s, 148° | - | - |
| 1787547376 | 34.44° C | 11% | 1009.8 hPa | 0 mm | 3.13 m/s, 182° | - | - |
| 1787547077 | 34.44° C | 11% | 1009.8 hPa | 0 mm | 3.13 m/s, 175° | - | - |
* Rain latest hour (hover to see other rain measurements)
** Current wind speed in m/s (hover to see current wind gust speed)